Simultaneous Nadir Overpasses (SNOs) Predictions

Prediction of SNOs between GOES-14 and NOAA-20 Satellite Orbit:

Table of predicted SNOs for the next 14.0 days since TLE Epoch: 7/29/2023
Index Date Time (GOES-14) GOES-14 Lat,Lon NOAA-20 Lat,Lon Distance(km) Time Diff (sec)
1 07/30/2023 08:44:10 -0.35,-108.65 -0.07,-109.97 150.22 80
2 07/31/2023 08:28:05 -0.33,-108.64 -1.03,-105.43 365.72 80
3 08/01/2023 20:47:21 0.37,-108.53 -0.15,-110.74 252.26 80
4 08/02/2023 20:31:16 0.35,-108.53 0.87,-106.21 264.21 80
5 08/04/2023 08:50:25 -0.39,-108.64 0.27,-111.49 325.77 80
6 08/05/2023 08:34:20 -0.37,-108.63 -0.75,-106.96 190.60 80
7 08/06/2023 20:53:37 0.40,-108.52 -0.43,-112.27 427.32 80
8 08/07/2023 20:37:31 0.39,-108.52 0.55,-107.73 89.30 80
9 08/10/2023 08:40:35 -0.41,-108.63 -0.43,-108.48 16.11 80
